Weather in Smolenskoe

Russia / Altai Krai     52°18′09″N   85°04′52″E
temp.,
°C
wind,
m/s
gust,
m/s
humid.,
%
clouds,
%
prec.,
mm/h
press.,
hPa
HPBL,
m
25 january, tue
tue2501:00−27e1110043 0.0 10409
04:00−28wnw0110086 0.0 10409
07:00−29nnw0010078 0.0 10399
10:00−29ssw1110081 0.0 10409
13:00−20wnw119749 0.0 103884
16:00−18w119596 0.0 103744
19:00−23ssw229984 0.0 103710
22:00−25s1199100 0.0 10379
26 january, wed
wed2601:00−25se1199100 0.0 10369
04:00−22e1198100 0.0 103512
07:00−22e2298100 0.0 103414
10:00−19e2293100 0.0 103347
13:00−13ene2383100 0.0 1031112
16:00−11ne1285100 0.0 1031111
19:00−13e1193100 0.0 103216
22:00−13ese1194100 0.0 103211
27 january, thu
thu2701:00−12se1193100 0.0 103312
04:00−12sse1193100 0.0 103411
07:00−14ene1194100 0.1 10359
10:00−16ese119699 0.0 103712
13:00−11e1294100 0.2 1038121
16:00−10e119497 0.1 103897
19:00−15sse119992 0.3 104010
22:00−16sse119888 0.1 104010
28 january, fri
fri2801:00−19se1110088 0.2 10409
04:00−23s119999 0.0 10409
07:00−24se119999 0.1 10419
10:00−25e119970 0.0 104011
13:00−17ene129317 0.0 103991
16:00−15e22925 0.0 103757
19:00−22se119922 0.0 10379
22:00−25se1110071 0.0 10379
29 january, sat
sat2901:00−26e1110074 0.0 10379
04:00−26e1110031 0.0 103610
07:00−26e11996 0.0 103612
10:00−25e11975 0.0 103620
13:00−16ene238213 0.0 103595
16:00−14ene228923 0.0 103558
19:00−20se119748 0.0 10369
22:00−23ese119915 0.0 10359